2019-09-06T07:17:13+02:00 GET /robots.txt HTTP/1.1
2019-09-06T07:17:13+02:00 GET /shop/termek/panasonic-dmpbdt280/1474166 HTTP/1.1
2019-09-06T07:17:17+02:00 GET /shop/termek/mykronoz-zefit-3-black/1526910 HTTP/1.1
2019-09-06T07:17:31+02:00 GET /shop/termek/intel-core-i73720qm-260ghz-ppga988-box/211962 HTTP/1.1
2019-09-06T07:17:36+02:00 GET /shop/termek/xoro-hrs-8660-smart/1676908 HTTP/1.1
2019-09-06T07:17:43+02:00 GET /shop/termek/sony-kd43xf7596-43/1666226 HTTP/1.1
2019-09-06T07:17:45+02:00 GET /shop/termek/lg-65uj701v-65/1657016 HTTP/1.1
2019-09-06T07:17:51+02:00 GET /shop/termek/philips-49pus750312-49/1657620 HTTP/1.1
2019-09-06T07:18:03+02:00 GET /shop/termek/epson-ebs11/191650 HTTP/1.1
2019-09-06T07:18:07+02:00 GET /shop/termek/microsoft-surface-pro-4-type-cover-german-black-fmm00005/1627624 HTTP/1.1
2019-09-06T07:18:09+02:00 GET /shop/termek/pinnacle-pctv-sat-pro-usb-hdtv-vde-452e/15647 HTTP/1.1
2019-09-06T07:18:14+02:00 GET /shop/termek/geovision-gvrelay-v2/1572853 HTTP/1.1
2019-09-06T07:18:19+02:00 GET /shop/termek/technaxx-trendgeek-fitness-armband-tghr1-black/1671750 HTTP/1.1
2019-09-06T07:18:24+02:00 GET /shop/termek/tefal-optimo-gv4630-steam-station/1433422 HTTP/1.1
2019-09-06T07:18:35+02:00 GET /shop/termek/orico-6648us3cv1-25-35-inch-sata20-usb30-1-to-3-clone-external-hard-drive-dock/1601906 HTTP/1.1
2019-09-06T07:18:38+02:00 GET /shop/termek/rommelsbacher-cg-2308tc-ceran-grill-oven/1626460 HTTP/1.1
2019-09-06T07:18:39+02:00 GET /shop/termek/moneual-me485-robot-vacuum-cleaner-extra-brush-blue-black/1658401 HTTP/1.1
2019-09-06T07:18:48+02:00 GET /shop/termek/acme-vr301-ultra-hd-sports-action-camera-with-wifi-%2B-remote/1659113 HTTP/1.1
2019-09-06T07:18:51+02:00 GET /shop/termek/pioneer-sbxb30-130w-speaker-base-with-builtin-bluetooth-and-integrated-twin-subwoofers/1396660 HTTP/1.1
2019-09-06T07:18:54+02:00 GET /shop/termek/palit-neat7100hd462080h-geforce-gt-710-2gb-ddr3-pcie/1510331 HTTP/1.1
2019-09-06T07:19:02+02:00 GET /shop/termek/wayteq-x995-max-8gb-android-gps+sygic-truck-complete-europe-map/1627610 HTTP/1.1
2019-09-06T07:19:17+02:00 GET /shop/termek/technaxx-tx67-wifi-ipcam-speed-dome-pro-fullhd-outdoor/1544857 HTTP/1.1
2019-09-06T07:19:37+02:00 GET /shop/termek/dirtdevil-dd-3010-aqua-clean-steam-washer/1570426 HTTP/1.1
2019-09-06T07:20:01+02:00 GET /shop/termek/acer-cb271hk/1657689 HTTP/1.1
2019-09-06T07:20:04+02:00 GET /shop/termek/acme-vr06-ultra-hd-sports-and-action-camera-with-wifi/1526129 HTTP/1.1
2019-09-06T07:22:00+02:00 GET /shop/termek/hp-probook-450-g5-4wu83es-silver/1745804 HTTP/1.1
2019-09-06T07:23:01+02:00 GET /shop/termek/mstech-ca0410-stop-shop/1568544 HTTP/1.1
2019-09-06T07:24:22+02:00 GET /shop/termek/dell-pe-t430-tower-to-rack-conversion-kit-321bbpg/1438362 HTTP/1.1
2019-09-06T07:25:07+02:00 GET /shop/termek/lg-pf1500/1343960 HTTP/1.1
2019-09-06T07:25:17+02:00 GET /shop/termek/iweld-gorilla-pocketmig-195-aluflux-hegesztogep-car/1596901 HTTP/1.1
2019-09-06T07:26:01+02:00 GET /shop/termek/xrocker-shift-21-ottoman-gaming-chair-blackorange/1685227 HTTP/1.1
2019-09-06T07:27:00+02:00 GET /shop/termek/logic-lkm200/292305 HTTP/1.1
2019-09-06T07:27:44+02:00 GET /shop/termek/zalman-zmk300m-+-zmm520w-red-mouse-bundle/1627596 HTTP/1.1
2019-09-06T07:30:16+02:00 GET /shop/termek/zalman-i3-series-luxurious-design/1671332 HTTP/1.1
2019-09-06T07:30:36+02:00 GET /shop/termek/osram-dulux-superstar-micro-twist-23w-1400lm-e27-warm-white/351981 HTTP/1.1
2019-09-06T07:30:43+02:00 GET /shop/termek/hoya-digital-filter-kit-ii-43mm/1746204 HTTP/1.1
2019-09-06T07:32:08+02:00 GET /shop/termek/avermedia-td310/1238889 HTTP/1.1
2019-09-06T07:32:11+02:00 GET /shop/termek/asus-vz279he/1592177 HTTP/1.1
2019-09-06T07:32:31+02:00 GET /shop/termek/philips-fc640401-powerpro-aqua-vacuum-cleaner-and-mopping-system/1459895 HTTP/1.1
2019-09-06T07:33:59+02:00 GET /shop/termek/divoom-pixoo-white/1687993 HTTP/1.1
2019-09-06T07:39:31+02:00 GET /shop/termek/asus-zenfone-2-view-flip-cover-deluxe-ze551ml-black/1283307 HTTP/1.1
2019-09-06T07:39:53+02:00 GET /shop/termek/philips-154723016-mygarden-columnpedestal-formation-robin-black-led/1615670 HTTP/1.1
2019-09-06T07:41:55+02:00 GET /shop/termek/bosch-advancedimpact-900-impact-drill-%2B-xline-drill-bit-stock/1624600 HTTP/1.1
2019-09-06T07:43:27+02:00 GET /shop/termek/dell-hybrid-adapter-+-power-bank/1595034 HTTP/1.1
2019-09-06T07:44:31+02:00 GET /shop/termek/cellularline-second-glass-ultra-curved-galaxy-s7-edge/1583028 HTTP/1.1
2019-09-06T07:50:30+02:00 GET /shop/termek/palit-ne51070015p21043d-geforce-gtx-1070-8gb-gddr5-dual-pcie/1486838 HTTP/1.1
2019-09-06T07:50:40+02:00 GET /shop/termek/hecht-9022-ketfokozatu-selfpropelled-benzinmotoros-homaro/1527843 HTTP/1.1
2019-09-06T07:52:35+02:00 GET /shop/termek/lg-55uj651v-55/1602500 HTTP/1.1
2019-09-06T07:53:45+02:00 GET /shop/termek/supermicro-mbdx11spmfo/1619753 HTTP/1.1
2019-09-06T07:54:35+02:00 GET /shop/termek/lian-li-pco11-air-rgb/1702292 HTTP/1.1
2019-09-06T07:55:17+02:00 GET /shop/termek/lg-43uk6400plf-43/1670744 HTTP/1.1
2019-09-06T07:58:41+02:00 GET /shop/termek/netgear-gs728tpv2-24port-gigabit-poe+-smart-managed-pro-switch-with-4-sfp-ports/1653266 HTTP/1.1
2019-09-06T08:00:06+02:00 GET /shop/termek/lg-49lh570v-49/1435059 HTTP/1.1
2019-09-06T08:00:21+02:00 GET /shop/termek/lego-technic-remote-tracked-vehicle-competition-42065/1554968 HTTP/1.1
2019-09-06T08:01:08+02:00 GET /shop/termek/trust-21046-asto-sound-bar-pc-speaker/1423378 HTTP/1.1
2019-09-06T08:01:09+02:00 GET /shop/termek/gskill-64gb-ripjaws-v-ddr4-3200mhz-cl14-kit-f43200c14q264gvk/1568989 HTTP/1.1
2019-09-06T08:02:23+02:00 GET /shop/termek/lg-32gk850fb/1674596 HTTP/1.1
2019-09-06T08:03:33+02:00 GET /shop/termek/jabra-link-260-usb-adapter-26019/1748290 HTTP/1.1
2019-09-06T08:05:42+02:00 GET /shop/termek/aoc-i2490vxqbt/1593285 HTTP/1.1
2019-09-06T08:07:27+02:00 GET /shop/termek/seagate-expansion-plus-2tb-5400-rpm-32-mb-usb-30-black-stef2000401/1592493 HTTP/1.1
2019-09-06T08:07:44+02:00 GET /shop/termek/sony-kd55xf7077-55/1694420 HTTP/1.1
2019-09-06T08:07:51+02:00 GET /shop/termek/oki-c843dn/1536268 HTTP/1.1
2019-09-06T08:08:40+02:00 GET /shop/termek/samsung-m6399-curved-smart-full-hd-tv-49-ue55m6399auxzg/1630702 HTTP/1.1
2019-09-06T08:09:19+02:00 GET /shop/termek/philips-55pus652312-55/1706502 HTTP/1.1
2019-09-06T08:09:42+02:00 GET /shop/termek/fsp-nano-600/158709 HTTP/1.1
2019-09-06T08:10:35+02:00 GET /shop/termek/msi-b450-tomahawk/1670506 HTTP/1.1
2019-09-06T08:10:37+02:00 GET /shop/termek/dell-s2719h/1648516 HTTP/1.1
2019-09-06T08:12:11+02:00 GET /shop/termek/zipato-mini-rfid-keypad/1666834 HTTP/1.1
2019-09-06T08:12:52+02:00 GET /shop/termek/rowenta-ro8388ea-silence-force-multicyclonic-4a/1685443 HTTP/1.1
2019-09-06T08:13:17+02:00 GET /shop/termek/aerocool-quartz-red/1633599 HTTP/1.1
2019-09-06T08:13:50+02:00 GET /shop/termek/outwell-170559-flat-wolvo-carpet-for-lawndale-500-gray/1661665 HTTP/1.1